FW8242 Weather Reports


time (UTC)temp
C
wind
direction
speed
KPH
gust
KPH
rain 1hr
cm
rain 24hr
cm
rain mn
cm
humidity
%
barometer
mb
20260504050528 17 59 3.2 6.4 0.00 1.12 1.12 92 861.6
20260504045527 17 80 3.2 6.4 0.00 1.12 1.12 92 861.4
20260504045027 17 63 1.6 4.8 0.00 1.12 1.12 92 861.3
20260504044536 17 76 1.6 4.8 0.00 1.12 1.12 91 861.2
20260504044029 17 73 0.0 3.2 0.00 1.12 1.12 91 861.0
20260504043526 17 42 0.0 6.4 0.00 1.12 1.12 91 860.9
20260504043027 17 42 1.6 9.7 0.00 1.12 1.12 91 860.9
20260504042526 17 49 3.2 9.7 0.00 1.12 1.12 90 861.0
20260504042025 17 65 3.2 8.0 0.00 1.12 1.12 90 861.1
20260504041527 18 67 3.2 8.0 0.00 1.12 1.12 89 861.3
20260504041026 18 74 4.8 8.0 0.00 1.12 1.12 89 861.3
20260504040526 18 66 1.6 8.0 0.00 1.12 1.12 87 861.4
20260504040025 19 63 1.6 8.0 0.00 1.12 1.12 86 861.4
20260504035526 20 85 0.0 9.7 0.00 1.12 1.12 84 861.3
20260504035024 21 65 0.0 16.1 0.00 1.12 1.12 82 861.2
20260504034534 22 320 3.2 19.3 0.00 1.12 1.12 78 861.1
20260504034024 22 360 8.0 32.2 0.00 1.12 1.12 75 861.2
20260504033525 22 37 8.0 32.2 0.00 1.12 1.12 78 861.0
20260504033023 21 12 9.7 25.7 0.00 1.12 1.12 80 861.0
20260504032523 21 36 9.7 27.4 0.00 1.12 1.12 80 861.2
20260504032023 20 77 16.1 27.4 0.00 1.12 1.12 83 861.2
20260504031523 17 46 6.4 14.5 0.00 1.12 1.12 91 861.4
20260504031022 17 87 3.2 9.7 0.00 1.12 1.12 91 861.5
20260504030522 17 61 4.8 9.7 0.00 1.12 1.12 91 861.5
20260504030038 17 46 0.0 8.0 0.00 1.12 1.12 91 861.5
20260504025523 18 76 4.8 8.0 0.00 1.12 1.12 90 861.4
20260504025024 18 67 1.6 8.0 0.00 1.12 1.12 89 861.6
20260504024523 19 65 4.8 8.0 0.00 1.12 1.12 87 861.5
20260504024021 20 69 3.2 12.9 0.00 1.12 1.12 84 861.4
20260504023522 21 186 1.6 29.0 0.00 1.12 1.12 82 861.2
20260504023025 21 45 6.4 29.0 0.00 1.12 1.12 79 861.1
20260504022521 20 59 3.2 19.3 0.00 1.12 1.12 84 861.2
20260504022020 19 50 6.4 19.3 0.00 1.12 1.12 87 861.1
20260504021519 18 140 6.4 16.1 0.00 1.12 1.12 91 861.0
20260504021019 18 54 3.2 16.1 0.00 1.12 1.12 91 861.1
20260504020519 18 136 3.2 12.9 0.00 1.12 1.12 90 861.3
20260504020022 17 26 4.8 16.1 0.03 1.12 1.12 91 861.2
20260504015519 17 188 4.8 16.1 0.03 1.12 1.12 94 860.9
20260504015024 17 50 0.0 8.0 0.05 1.12 1.12 93 861.0
20260504014532 17 61 3.2 6.4 0.05 1.12 1.12 93 861.1
20260504014018 17 78 0.0 6.4 0.08 1.12 1.12 93 861.1
20260504013518 17 76 1.6 6.4 0.10 1.12 1.12 92 861.1
20260504013020 17 32 1.6 17.7 0.15 1.12 1.12 92 861.0
20260504012518 17 44 6.4 17.7 0.30 1.12 1.12 93 860.8
20260504012018 17 72 6.4 17.7 0.38 1.12 1.12 93 860.9
20260504011518 17 69 6.4 17.7 0.53 1.12 1.12 94 861.0
20260504011020 17 78 3.2 8.0 0.61 1.12 1.12 94 861.1
20260504010517 17 82 3.2 6.4 0.76 1.12 1.12 94 861.3
20260504010020 17 70 1.6 6.4 0.79 1.09 1.09 94 861.5
20260504005517 17 68 3.2 6.4 0.81 1.09 1.09 93 861.6
20260504005019 17 16 3.2 6.4 0.79 1.07 1.07 93 861.7
20260504004517 17 69 0.0 9.7 0.79 1.07 1.07 93 861.7
20260504004016 17 66 3.2 9.7 0.76 1.04 1.04 93 861.6
20260504003515 18 86 1.6 8.0 0.71 1.02 1.02 92 861.7
20260504003027 18 250 3.2 8.0 0.66 0.94 0.94 92 861.9
20260504002515 18 53 3.2 11.3 0.51 0.79 0.79 91 861.9
20260504002015 18 59 1.6 22.5 0.43 0.71 0.71 90 861.8
20260504001515 19 49 3.2 30.6 0.30 0.58 0.58 89 861.8
20260504001017 19 34 20.9 30.6 0.20 0.48 0.48 90 861.7
20260504000514 19 15 4.8 9.7 0.05 0.33 0.33 93 861.5
20260504000014 20 67 1.6 6.4 0.00 0.28 0.28 93 861.1
20260503235514 20 63 3.2 6.4 0.00 0.28 0.28 93 860.8
20260503235018 20 73 0.0 6.4 0.00 0.28 0.28 93 860.5
20260503234529 20 71 3.2 6.4 0.00 0.28 0.28 92 860.2
20260503234013 20 67 3.2 6.4 0.00 0.28 0.28 92 860.1
20260503233517 20 60 1.6 6.4 0.00 0.28 0.28 92 860.0
20260503233013 20 83 1.6 6.4 0.00 0.28 0.28 92 859.8
20260503232513 20 80 3.2 9.7 0.00 0.28 0.28 92 859.8
20260503232013 20 53 3.2 11.3 0.00 0.28 0.28 92 859.8
20260503231514 20 28 6.4 12.9 0.00 0.28 0.28 93 859.8
20260503231016 20 57 3.2 16.1 0.00 0.28 0.28 94 859.7
20260503230512 20 54 8.0 16.1 0.00 0.28 0.28 94 859.9
20260503230012 20 87 0.0 4.8 0.00 0.28 0.28 94 859.9
20260503225511 20 87 1.6 4.8 0.00 0.38 0.28 94 860.1
20260503225014 20 199 0.0 1.6 0.00 0.38 0.28 94 860.1
20260503224511 20 199 0.0 4.8 0.00 0.38 0.28 94 860.1
20260503224011 20 199 1.6 6.4 0.00 0.38 0.28 94 860.2
20260503223511 20 199 0.0 8.0 0.00 0.38 0.28 94 860.2
20260503223010 20 184 3.2 6.4 0.00 0.38 0.28 93 860.2
20260503222510 20 92 0.0 1.6 0.00 0.38 0.28 93 860.2
20260503222010 20 92 0.0 6.4 0.00 0.38 0.28 93 860.2
20260503221510 20 92 3.2 6.4 0.00 0.38 0.28 93 860.1
20260503221010 20 109 1.6 6.4 0.00 0.38 0.28 93 860.2
20260503220513 20 109 1.6 6.4 0.00 0.38 0.28 93 860.3
20260503220010 21 179 1.6 4.8 0.00 0.38 0.28 93 860.3
20260503215512 21 179 0.0 3.2 0.00 0.38 0.28 93 860.3
20260503215009 21 179 1.6 3.2 0.00 0.38 0.28 93 860.3
20260503214513 21 179 0.0 3.2 0.00 0.38 0.28 93 860.3
20260503214008 21 180 0.0 1.6 0.00 0.38 0.28 92 860.4
20260503213508 21 179 0.0 1.6 0.00 0.38 0.28 92 860.4
20260503213008 21 180 0.0 6.4 0.00 0.38 0.28 92 860.4
20260503212508 21 179 0.0 6.4 0.00 0.38 0.28 92 860.6
20260503212008 21 201 1.6 4.8 0.00 0.38 0.28 91 860.3
20260503211509 21 208 1.6 4.8 0.00 0.38 0.28 91 860.1
20260503211010 21 208 0.0 3.2 0.00 0.38 0.28 90 860.0
20260503210510 21 208 0.0 6.4 0.00 0.38 0.28 90 860.0
20260503210007 21 208 1.6 6.4 0.00 0.38 0.28 91 860.2
20260503205508 21 207 1.6 3.2 0.00 0.38 0.28 91 860.4
20260503205008 21 207 0.0 4.8 0.00 0.38 0.28 92 860.5
20260503204508 21 207 1.6 4.8 0.00 0.38 0.28 92 860.5
20260503204006 21 206 1.6 9.7 0.00 0.38 0.28 93 860.4
20260503203510 21 217 3.2 9.7 0.00 0.38 0.28 94 860.4
20260503203009 21 227 0.0 3.2 0.03 0.38 0.28 94 860.5
20260503202506 21 227 0.0 8.0 0.05 0.38 0.28 94 860.6
20260503202006 20 226 3.2 8.0 0.05 0.38 0.28 94 860.7
20260503201506 20 184 3.2 8.0 0.20 0.38 0.28 95 860.7
20260503201007 20 110 0.0 1.6 0.23 0.38 0.28 95 860.9
20260503200506 20 109 0.0 1.6 0.23 0.38 0.28 95 860.9
20260503200006 20 109 0.0 1.6 0.23 0.38 0.28 95 860.9
20260503195506 20 108 0.0 1.6 0.23 0.38 0.28 94 861.1
20260503195006 20 108 0.0 1.6 0.23 0.38 0.28 95 861.2
20260503194505 20 108 0.0 1.6 0.23 0.38 0.28 95 861.2
20260503194007 20 108 0.0 0.0 0.23 0.38 0.28 94 861.4
20260503193505 20 108 0.0 3.2 0.23 0.36 0.25 94 861.5
20260503193008 20 108 0.0 4.8 0.20 0.33 0.23 94 861.5
20260503192504 20 108 0.0 4.8 0.20 0.33 0.23 94 861.5
20260503192008 20 109 1.6 4.8 0.15 0.28 0.18 94 861.6
20260503191503 20 209 0.0 1.6 0.05 0.18 0.08 94 861.6
20260503191007 20 209 0.0 1.6 0.05 0.15 0.05 94 861.6
20260503190505 20 209 0.0 1.6 0.05 0.15 0.05 94 861.6
20260503190003 20 209 0.0 3.2 0.05 0.15 0.05 94 861.7
20260503185504 20 209 0.0 3.2 0.05 0.15 0.05 94 861.7
20260503185005 20 209 0.0 1.6 0.05 0.15 0.05 93 861.7
20260503184507 20 209 0.0 1.6 0.05 0.15 0.05 93 861.8
20260503184004 21 209 0.0 0.0 0.05 0.15 0.05 93 861.8
20260503183503 21 209 0.0 0.0 0.05 0.15 0.05 93 861.8
20260503183002 21 209 0.0 1.6 0.05 0.15 0.05 93 861.9
20260503182502 21 209 0.0 1.6 0.05 0.15 0.05 92 862.0
20260503182005 21 209 0.0 1.6 0.05 0.15 0.05 92 862.0
20260503181503 21 209 0.0 11.3 0.05 0.15 0.05 91 862.0
20260503181002 21 209 0.0 11.3 0.00 0.10 0.00 91 862.1
20260503180502 22 186 0.0 4.8 0.00 0.10 0.00 90 862.1
20260503180002 22 182 0.0 4.8 0.00 0.10 0.00 90 862.1
20260503175501 22 182 0.0 6.4 0.00 0.10 0.00 90 862.1
20260503175003 22 187 3.2 4.8 0.00 0.10 0.00 90 862.1
20260503174501 22 188 1.6 6.4 0.00 0.10 0.00 89 862.2
20260503174100 22 188 1.6 6.4 0.00 0.10 0.00 88 862.3
20260503173600 22 187 1.6 6.4 0.00 0.10 0.00 88 862.4
20260503173120 22 187 1.6 6.4 0.00 0.10 0.00 88 862.4
20260503172603 22 184 3.2 6.4 0.00 0.10 0.00 88 862.3
20260503172058 22 194 1.6 6.4 0.00 0.10 0.00 88 862.3
20260503171556 22 197 1.6 3.2 0.00 0.10 0.00 88 862.3
20260503171057 22 197 0.0 4.8 0.00 0.10 0.00 88 862.3
20260503170556 22 197 0.0 6.4 0.00 0.10 0.00 89 862.3
20260503150540 20 163 0.0 4.8 0.00 0.10 0.00 92 862.3
20260503131028 18 66 3.2 6.4 0.00 0.10 0.00 95 861.3
20260503130527 18 66 3.2 6.4 0.00 0.10 0.00 95 861.3
20260503110524 -17 0.0 0.0 0.00 0.10 0.00 860.7
20260503081552 17 62 4.8 8.0 0.00 0.10 0.00 94 860.2
20260503081050 17 59 3.2 8.0 0.00 0.10 0.00 94 860.3
20260503080552 17 70 4.8 8.0 0.00 0.10 0.00 94 860.3